This is the latest recevied weather packets stored in our database for station/object KD0JCP-10. If no packets are shown the sender has not sent any weather packets the latest 10 day(s).
| Time | Temp. | Humidity | Pressure | Rain* | Wind** | Luminosity | Snow |
|---|---|---|---|---|---|---|---|
| 1777590987 | 13.33° C | 49% | 1019.5 hPa | 0 mm | - | - | - |
| 1777590687 | 13.33° C | 49% | 1019.6 hPa | 0 mm | - | - | - |
| 1777590387 | 13.89° C | 50% | 1019.6 hPa | 0 mm | - | - | - |
| 1777590087 | 13.33° C | 51% | 1019.5 hPa | 0 mm | - | - | - |
| 1777589787 | 13.33° C | 50% | 1019.5 hPa | 0 mm | - | - | - |
| 1777589487 | 13.89° C | 50% | 1019.5 hPa | 0 mm | - | - | - |
| 1777589187 | 13.33° C | 50% | 1019.5 hPa | 0 mm | - | - | - |
| 1777588887 | 13.33° C | 51% | 1019.4 hPa | 0 mm | - | - | - |
| 1777588587 | 13.33° C | 52% | 1019.4 hPa | 0 mm | - | - | - |
| 1777588287 | 13.33° C | 52% | 1019.3 hPa | 0 mm | - | - | - |
| 1777587987 | 13.33° C | 51% | 1019.4 hPa | 0 mm | - | - | - |
| 1777587687 | 13.89° C | 50% | 1019.3 hPa | 0 mm | - | - | - |
| 1777587387 | 14.44° C | 45% | 1019.1 hPa | 0 mm | - | - | - |
| 1777587087 | 14.44° C | 43% | 1019.3 hPa | 0 mm | - | - | - |
| 1777586787 | 14.44° C | 44% | 1019.4 hPa | 0 mm | - | - | - |
| 1777586487 | 14.44° C | 44% | 1019.2 hPa | 0 mm | - | - | - |
| 1777586187 | 14.44° C | 44% | 1019.3 hPa | 0 mm | - | - | - |
| 1777585887 | 14.44° C | 44% | 1019.4 hPa | 0 mm | - | - | - |
| 1777585587 | 14.44° C | 46% | 1019.5 hPa | 0 mm | - | - | - |
| 1777585287 | 14.44° C | 46% | 1019.6 hPa | 0 mm | - | - | - |
| 1777584987 | 13.89° C | 46% | 1019.5 hPa | 0 mm | - | - | - |
| 1777584687 | 13.89° C | 48% | 1019.7 hPa | 0 mm | - | - | - |
| 1777584387 | 13.89° C | 47% | 1019.7 hPa | 0 mm | - | - | - |
| 1777584087 | 13.89° C | 49% | 1019.7 hPa | 0 mm | - | - | - |
| 1777583787 | 13.89° C | 47% | 1019.7 hPa | 0 mm | - | - | - |
* Rain latest hour (hover to see other rain measurements)
** Current wind speed in m/s (hover to see current wind gust speed)